STARLETTE

Last updated on Tue Sep 22 2026 00:03:50 GMT+0000 (Coordinated Universal Time)

1 07646U 75010A 26264.60178749 -.00000145 00000+0 -54366-6 0 9999 2 07646 49.8228 84.0287 0205592 21.5606 339.3794 13.82351627607874
UTC large
Height (km)
Speed (km/s)
/
Latitude / Longitude
Inclination (degrees)
Orbital Period (minutes)
Azimuth
Elevation
Range (km)
Doppler Factor

Next 0 passes for location: London (51.5072 / 0.1276)

No passes found over London.
STARLETTE